#timestamp,LO_Frequency,Hit,StdDev 
1542034815.5,286047001.2,N
1542034835.4,286046996.6,P
1542034855.2,286046997.2,N
1542034875.0,286046997.2,N
1542034875.9,286046997.2,N
1542034895.8,286046996.9,N
1542034915.6,286046999.6,N
1542034935.5,286046997.0,N
1542034955.3,286046996.6,N
1542034975.1,286046996.9,N
1542034995.9,286046999.4,N
1542035015.7,286046999.1,N
1542035035.6,286046999.5,N
1542035055.4,286046999.6,N
1542035075.2,286046996.8,N
1542035095.1,286046997.2,N
1542035096.0,286046997.2,N
1542035115.8,286046999.4,N
1542035135.7,286046997.8,N
1542035155.5,286046997.1,N
1542035175.3,286046997.0,N
1542035195.2,286046996.6,N
1542035215.0,286046996.8,N
1542035215.9,286046996.8,N
1542035235.7,286046997.3,N
1542035255.6,286046997.4,N
1542035275.2,286046997.5,N
1542035295.9,286046997.2,N
1542035315.7,286046999.5,N
1542035335.6,286046999.0,N
1542035385.4,286046998.6,E
1542035395.4,286047001.1,N
1542035415.2,286047000.9,P
1542035435.0,286046998.1,P
1542035435.9,286046998.1,N
1542035455.8,286047000.8,N
1542035475.6,286046999.9,N
1542035495.4,286046999.9,N
1542035515.3,286047000.2,N
1542035535.1,286047000.2,N
1542035555.9,286047000.6,N
1542035575.7,286047000.5,N
1542035595.5,286047000.2,N
1542035615.4,286047000.6,N
1542035635.2,286047001.0,N
1542035655.0,286047000.8,N
1542035655.9,286047000.8,N
1542035675.8,286046998.5,N
1542035695.6,286047000.3,N
1542035715.5,286047000.9,N
1542035735.3,286046999.9,N
1542035755.1,286047000.3,N
1542035775.9,286047000.6,N
1542035795.7,286047000.2,N
1542035815.5,286047000.2,N
1542035835.4,286047002.6,Y
1542035855.2,286047000.2,P
1542035875.1,286047000.4,P
1542035876.0,286047000.4,P
1542035895.8,286047000.9,Y
1542035915.7,286047000.6,P
1542035935.5,286047000.6,P
1542035955.3,286047000.3,N
1542035975.2,286047000.4,N
1542035995.0,286047000.2,N
1542035995.9,286047000.2,N
1542036015.8,286047002.4,Y
1542036035.6,286046999.8,P
1542036055.4,286046999.7,N
1542036075.3,286047000.0,N
1542036095.1,286047000.5,N
1542036115.8,286047000.0,N
1542036135.7,286047000.6,N
1542036155.5,286047001.6,Y
1542036175.4,286046999.7,P
1542036195.2,286047000.2,N
1542036215.0,286047001.0,P
1542036215.9,286047001.0,N
1542036235.8,286046999.9,N
1542036255.6,286047000.1,N
1542036275.4,286047000.0,N
1542036295.3,286046998.3,Y
1542036315.1,286046998.1,P
1542036335.9,286046998.8,N
1542036355.7,286046998.9,N
1542036375.5,286046998.8,N
1542036395.4,286046998.7,N
1542036415.2,286046998.1,N
1542036435.0,286046998.1,N
1542036435.9,286046998.1,N
1542036455.8,286046998.1,N
1542036475.6,286046998.2,N
1542036495.5,286047000.7,N
1542036515.3,286046999.9,N
1542036535.1,286047000.9,N
1542036555.9,286046998.6,N
1542036575.7,286047000.8,N
1542036595.6,286047000.6,N
1542036615.4,286047000.0,N
1542036635.2,286047000.0,N
1542036655.1,286047000.6,N
1542036656.0,286047000.6,N
1542036675.8,286047000.6,N
1542036695.6,286047000.5,N
1542036715.5,286047000.5,N
1542036735.3,286046999.9,N
1542036755.2,286047000.1,N
1542036775.9,286047000.2,N
1542036795.7,286046999.9,N
1542036815.6,286047002.6,N
1542036835.4,286046999.9,N
1542036855.2,286046999.9,N
1542036875.1,286046999.8,N
1542036876.0,286046999.8,N
1542036895.8,286047000.1,N
1542036915.7,286046999.9,N
1542036935.5,286047002.0,N
1542036955.3,286047002.8,N
1542036975.2,286046999.7,N
1542036995.0,286046999.9,N
1542036995.9,286046999.9,N
1542037015.7,286046999.7,N
1542037035.6,286046999.8,N
1542037055.4,286047000.3,N
1542037075.3,286047000.0,N
1542037095.1,286047000.4,N
1542037096.0,286047000.4,N
1542037115.8,286046999.9,N
1542037135.7,286047000.8,N
1542037155.5,286046998.2,N
1542037175.4,286047002.8,Y
1542037195.2,286047000.6,P
1542037215.0,286047000.9,P
1542037215.9,286047000.9,P
1542037235.8,286046999.9,N
1542037255.6,286047000.5,N
1542037275.5,286046999.9,N
1542037295.3,286047000.5,N
1542037315.1,286047000.7,N
1542037335.9,286047001.1,Y
1542037355.7,286047001.1,P
1542037375.6,286047001.0,P
1542037395.4,286047000.5,N
1542037415.2,286047001.2,Y
1542037435.1,286046998.8,P
1542037436.0,286046998.8,N
1542037455.8,286046996.9,P
1542037475.7,286046996.7,N
1542037495.5,286046998.9,N
1542037515.3,286046999.5,N
1542037535.2,286047001.2,N
1542037555.0,286047001.2,N
1542037555.9,286047001.2,N
1542037575.8,286047000.8,N
1542037595.6,286046998.2,N
1542037615.4,286047001.2,N
1542037635.3,286047000.7,N
1542037655.1,286047000.8,N
1542037656.0,286047000.8,N
1542037675.8,286047000.6,N
1542037695.7,286047000.8,N
1542037715.5,286046998.7,N
1542037735.3,286046998.2,N
1542037755.2,286046999.2,N
1542037775.0,286046998.4,N
1542037775.9,286046998.4,N
1542037795.8,286046998.7,N
1542037815.6,286046999.2,N
1542037835.4,286046998.8,N
1542037855.3,286046998.4,N
1542037875.1,286046998.9,N
1542037895.9,286046998.1,N
1542037915.7,286047000.4,N
1542037935.5,286047000.2,N
1542037955.4,286047000.2,N
1542037975.2,286047000.0,N
1542037995.0,286047001.0,N
1542037995.9,286047001.0,N
1542038015.8,286047000.9,N
1542038035.6,286047000.8,N
1542038055.4,286047000.7,N
1542038075.3,286046998.5,N
1542038095.1,286047000.3,N
1542038115.9,286047001.0,N
1542038135.7,286046998.2,N
1542038155.5,286047000.5,N
1542038175.4,286047001.1,N
1542038195.2,286046997.3,N
1542038215.0,286046996.9,N
1542038216.0,286046996.9,N
1542038235.8,286046996.7,N
1542038255.6,286046999.1,N
1542038275.5,286046999.0,N
1542038295.3,286046997.3,N
1542038315.1,286046997.3,N
1542038335.9,286046996.5,N
1542038355.7,286046996.9,N
1542038375.6,286046996.7,N
1542038395.4,286046996.9,N
